Балыкши

Казахстан     47°04′52″N   51°52′50″E
темп.,
°C
ветер,
м/с
пор.,
м/с
влажн.,
%
обл.,
%
осадки,
мм/ч
давл.,
гПа
погр.,
м
25 февраля, чт
чт2523:00−20сз713852 0.0 1035470
02:00−21сз510880 0.0 1037323
05:00−21сз48900 0.0 1038213
08:00−21зсз35910 0.0 1039127
11:00−18зсз347230 0.0 1040320
14:00−13з3354100 0.0 1040520
17:00−12юз4360100 0.0 1038442
20:00−14ююз4678100 0.0 1037313
26 февраля, пт
пт2623:00−13ю5877100 0.0 1035332
02:00−12ю5976100 0.0 1032285
05:00−11ю71193100 0.8 1029342
08:00−8ю81294100 1.4 1025366
11:00−5ю81292100 2.4 1023448
14:00−1юз81093100 1.1 1020750
17:00−1зюз6789100 1.8 1019612
20:00−3з3594100 0.1 1019146
27 февраля, сб
сб2723:00−2юз3495100 0.1 1018101
02:00−1ююз4598100 0.1 1017150
05:000юз4797100 0.2 1016208
08:00+1юз71297100 0.2 1014348
11:00+2юз81398100 0.2 1014375
14:00+2зюз91497100 0.8 1013471
17:00+2зюз91496100 1.3 1012441
20:00+2зюз81396100 0.3 1011382
28 февраля, вс
вс2823:00+2зюз81396100 0.7 1012348
02:00+2зюз81396100 0.2 1011369
05:00+2зюз61096100 0.3 1010297
08:00+2зюз5996100 0.0 1010325
11:00+3зюз579199 0.0 1011457
14:00+5з686867 0.0 10121076
17:00+5зсз566881 0.1 1013951
20:00+2зсз349099 0.0 1013185
1 марта, пн
пн123:00+1зсз259799 0.1 1015327
02:000сз349499 0.1 1016215
05:00−1зсз129399 0.1 101721
08:000зюз129394 0.0 101848
11:00+1з348697 0.2 1020384
14:00+3сз457796 0.1 1021714
17:00+1ссз667597 0.2 1022692
20:00−2сз577845 0.0 1024342